Location: ???? ?????
(30.0052°N, 31.2891°E)
Time: 03:05:20
(UTC+00:00)

CZ-2C DEB - Visible Passes

Search period start: 28 January 2023 00:00
Search period end: 07 February 2023 00:00
Orbit: 572 x 601 km, 97.6° (Epoch: 27 January)

Date Brightness Start Highest point End Pass type
(mag) Time Alt. Az. Time Alt. Az. Time Alt. Az.
04 Feb ? 02:25:14 10° NNE 02:25:23 11° NNE 02:25:23 11° NNE visible
05 Feb ? 02:32:03 10° NNE 02:32:35 13° NNE 02:32:35 13° NNE visible
06 Feb ? 02:38:53 10° NNE 02:39:46 16° NNE 02:39:46 16° NNE visible
